WB7UVH Weather Reports


Display with metric or nautical units.
time (UTC)temp
F
wind
direction
speed
MPH
gust
MPH
rain 1hr
in
rain 24hr
in
rain mn
in
humidity
%
barometer
mb
20260905200003 68 139 0.0 0.0 0.00 0.08 0.00 68 1020.9
20260905194503 65 143 0.0 0.0 0.00 0.08 0.00 77 1021.1
20260905193005 64 144 0.0 0.0 0.00 0.08 0.00 76 1021.3
20260905191504 63 156 0.0 0.0 0.00 0.08 0.00 82 1021.5
20260905190004 62 156 0.0 0.0 0.00 0.08 0.00 83 1021.7
20260905184503 62 156 0.0 0.0 0.00 0.08 0.00 83 1021.8
20260905183004 62 156 0.0 0.0 0.00 0.08 0.00 82 1022.0
20260905181504 62 156 0.0 0.0 0.00 0.08 0.00 81 1022.1
20260905180003 62 156 0.0 0.0 0.00 0.08 0.00 83 1022.2
20260905173004 63 157 0.0 0.0 0.00 0.08 0.00 82 1022.1
20260905161503 57 348 0.0 0.0 0.00 0.08 0.00 92 1022.5
20260905160004 57 271 0.0 0.0 0.00 0.08 0.00 94 1022.5
20260905154504 56 271 0.0 0.0 0.00 0.08 0.00 95 1022.5
20260905153004 56 272 0.0 0.0 0.00 0.08 0.00 96 1022.5
20260905151504 55 268 0.0 0.0 0.00 0.08 0.00 97 1022.5
20260905150005 55 268 0.0 0.0 0.00 0.08 0.00 97 1022.5
20260905144504 55 268 0.0 0.0 0.00 0.08 0.00 97 1022.4
20260905143004 55 268 0.0 0.0 0.00 0.08 0.00 96 1022.4
20260905141504 55 268 0.0 0.0 0.00 0.08 0.00 96 1022.3
20260905140004 55 266 0.0 0.0 0.00 0.09 0.00 96 1022.3
20260905133004 55 260 0.0 0.0 0.00 0.09 0.00 97 1022.1
20260905131503 54 260 0.0 0.0 0.00 0.09 0.00 97 1022.0
20260905130003 54 260 0.0 0.0 0.00 0.10 0.00 97 1021.9
20260905124503 54 260 0.0 0.0 0.00 0.11 0.00 96 1021.9
20260905123004 54 260 0.0 0.0 0.00 0.13 0.00 96 1021.9
20260905120004 54 260 0.0 0.0 0.00 0.14 0.00 96 1021.8
20260905114503 55 260 0.0 0.0 0.00 0.14 0.00 96 1021.7
20260905113004 55 260 0.0 0.0 0.00 0.14 0.00 97 1021.7
20260905111503 54 260 0.0 0.0 0.00 0.14 0.00 97 1021.7
20260905104504 54 260 0.0 0.0 0.00 0.14 0.00 97 1021.6
20260905103004 54 260 0.0 0.0 0.00 0.14 0.00 96 1021.7
20260905101505 54 260 0.0 0.0 0.00 0.14 0.00 96 1021.5
20260905100004 54 260 0.0 0.0 0.00 0.14 0.00 96 1021.5
20260905094503 54 260 0.0 0.0 0.00 0.14 0.00 96 1021.6
20260905093004 54 260 0.0 0.0 0.00 0.14 0.00 96 1021.5
20260905091505 54 260 0.0 0.0 0.00 0.14 0.00 96 1021.4
20260905090007 54 260 0.0 0.0 0.00 0.14 0.00 96 1021.3
20260905084504 54 260 0.0 0.0 0.00 0.14 0.00 96 1021.3
20260905083003 55 260 0.0 0.0 0.00 0.14 0.00 96 1021.3
20260905081504 55 260 0.0 0.0 0.00 0.14 0.00 96 1021.2
20260905074504 55 260 0.0 0.0 0.00 0.14 0.00 96 1021.1
20260905073004 55 260 0.0 0.0 0.00 0.15 0.00 96 1021.1
20260905071505 55 260 0.0 0.0 0.00 0.15 0.00 96 1020.7
20260905070004 55 260 0.0 0.0 0.00 0.15 0.00 96 1020.6
20260905064504 55 260 0.0 0.0 0.00 0.16 0.15 96 1020.7
20260905063003 55 260 0.0 0.0 0.01 0.16 0.15 96 1020.7
20260905061504 55 260 0.0 0.0 0.01 0.16 0.15 96 1020.6
20260905060004 55 260 0.0 0.0 0.01 0.16 0.15 96 1020.5
20260905054504 56 260 0.0 0.0 0.01 0.16 0.15 96 1020.6
20260905053004 56 260 0.0 0.0 0.00 0.15 0.14 96 1020.4
20260905051505 56 260 0.0 0.0 0.00 0.15 0.14 96 1020.3
20260905050004 56 260 0.0 0.0 0.00 0.15 0.14 96 1020.3
20260905044504 56 260 0.0 0.0 0.00 0.15 0.14 96 1020.2
20260905043003 56 260 0.0 0.0 0.00 0.15 0.14 96 1020.2
20260905040004 56 259 0.0 0.0 0.00 0.15 0.14 95 1020.0
20260905034504 56 259 0.0 0.0 0.00 0.15 0.14 96 1019.9
20260905033005 56 259 0.0 0.0 0.00 0.15 0.14 96 1019.8
20260905030004 56 259 0.0 0.0 0.00 0.15 0.14 95 1019.8
20260905024504 56 259 0.0 0.0 0.00 0.15 0.14 94 1019.8
20260905023004 56 259 0.0 0.0 0.00 0.15 0.14 94 1019.9
20260905021505 57 259 0.0 0.0 0.00 0.15 0.14 93 1019.7
20260905020004 58 259 0.0 0.0 0.00 0.15 0.14 93 1019.6
20260905013004 59 259 0.0 0.0 0.00 0.15 0.14 92 1019.0
20260905011504 59 259 0.0 0.0 0.00 0.15 0.14 92 1018.9
20260905010004 59 259 0.0 0.0 0.00 0.15 0.14 91 1019.0
20260905004504 59 259 0.0 0.0 0.00 0.15 0.14 92 1019.0
20260905001505 59 256 0.0 0.0 0.00 0.15 0.14 92 1019.1
20260905000005 59 255 0.0 0.0 0.01 0.20 0.14 94 1019.0
20260904234504 58 256 0.0 0.0 0.02 0.20 0.14 94 1018.9
20260904233004 57 254 0.0 0.0 0.03 0.20 0.14 94 1019.0
20260904231504 57 254 0.0 0.0 0.03 0.20 0.14 93 1019.0
20260904230004 57 254 0.0 0.0 0.02 0.19 0.13 93 1019.0
20260904224504 57 253 0.0 0.0 0.03 0.18 0.12 92 1019.1
20260904223004 58 253 0.0 0.0 0.04 0.17 0.11 91 1019.1
20260904221504 59 253 0.0 3.0 0.04 0.17 0.11 88 1019.1
20260904214503 63 98 0.0 1.0 0.02 0.16 0.09 80 1018.5
20260904211504 66 95 1.0 5.0 0.00 0.14 0.07 71 1017.6
20260904210004 68 43 0.0 5.0 0.00 0.14 0.07 66 1017.5
20260904203004 67 122 0.0 3.0 0.00 0.14 0.07 69 1017.4